KE0MVE Weather Reports


Display with metric or nautical units.
time (UTC)temp
F
wind
direction
speed
MPH
gust
MPH
rain 1hr
in
rain 24hr
in
rain mn
in
humidity
%
barometer
mb
20220817004506 77 157 0.0 3.0 0.00 0.00 0.00 58 987.3
20220817003013 78 116 2.0 5.0 0.00 0.00 0.00 56 987.3
20220817001514 79 122 1.0 3.0 0.00 0.00 0.00 57 987.4
20220817000004 79 135 0.0 4.0 0.00 0.00 0.00 58 987.4
20220816234506 79 184 0.0 3.0 0.00 0.00 0.00 58 987.3
20220816233004 80 228 0.0 3.0 0.00 0.00 0.00 56 987.3
20220816231502 80 245 2.0 6.0 0.00 0.00 0.00 56 987.2
20220816230111 81 146 1.0 5.0 0.00 0.00 0.00 57 987.2
20220816224607 82 218 1.0 6.0 0.00 0.00 0.00 54 987.2
20220816223059 82 163 1.0 6.0 0.00 0.00 0.00 53 987.1
20220816221623 82 218 2.0 6.0 0.00 0.00 0.00 55 987.2
20220816220140 81 165 2.0 6.0 0.00 0.00 0.00 56 987.3
20220816214706 81 181 1.0 4.0 0.00 0.00 0.00 56 987.3
20220816213059 82 224 2.0 8.0 0.00 0.00 0.00 55 987.3
20220816211612 81 232 2.0 8.0 0.00 0.00 0.00 56 987.4
20220816210100 81 195 0.0 8.0 0.00 0.00 0.00 57 987.4
20220816204557 80 126 2.0 6.0 0.00 0.00 0.00 58 987.6
20220816203111 80 120 1.0 5.0 0.00 0.00 0.00 58 987.5
20220816201607 81 104 1.0 6.0 0.00 0.00 0.00 56 987.7
20220816200053 82 244 0.0 6.0 0.00 0.00 0.00 55 987.7
20220816194534 81 225 1.0 6.0 0.00 0.00 0.00 56 987.8
20220816193043 81 208 1.0 9.0 0.00 0.00 0.00 57 987.9
20220816191526 80 199 1.0 4.0 0.00 0.00 0.00 59 988.1
20220816190015 81 205 2.0 8.0 0.00 0.00 0.00 58 988.2
20220816184512 80 245 1.0 5.0 0.00 0.00 0.00 59 988.3
20220816183011 79 123 1.0 6.0 0.00 0.00 0.00 61 988.5
20220816181506 78 186 1.0 6.0 0.00 0.00 0.00 62 988.5
20220816180005 79 217 2.0 5.0 0.00 0.00 0.00 60 988.6
20220816174605 78 289 0.0 7.0 0.00 0.00 0.00 63 988.6